Showing default

NAXING 1, 28221

Orbit data source: Space-Track

NAXING 1, 28221 is a payload satellite owned by CASC (CN) in SSO that was launched on Sun, 18 Apr 2004 UTC via a CHANG ZHENG 2C launch vehicle from the Xichang Space Center, China (XSC). Payload-class satellites include a variety of spacecraft equipped with specific instruments for various scientific and technological missions. These include communications satellites like Starlink; space stations such as the ISS; scientific satellites like the Hubble; Earth observation satellites from companies like Planet Labs, Umbra, and HawkEye 360; GPS; miniature CubeSats for education and research; and military/defense satellites.

Loading next visibility...
Identifier
28221, 2004-012B
Orbit
SSO
Country
Flag of CNCN / PRC
Related business
Manufacturer
Tsinghua
Mission
Civil Technology
Bus & Motor
NX, Unknown motor
Mass
25 kg wet, 25 kg dry
Launch date (UTC)
2004-04-18 (22 years ago)
Launch vehicle
CHANG ZHENG 2C
Launch site
Xichang Space Center, China (XSC)
Object type
Payload
Rocket body
Debris
Shape & HBR
Box, 0.1 m
Radar Cross Section
0.060 m², Medium (>0.1 m² and < 1m²)

Expand to show TLE details & history
Last TLE update: 15 hours ago

TLE from 15 hours ago
0 NAXING 1
1 28221U 04012B   26126.02785139  .00002609  00000-0  18491-3 0  9997
2 28221  98.0060 152.1930 0009871 229.3847 130.6521 15.05715923200908
Epoch: 2026-05-06T00:40Z
TLE epoch observation values (Epoch: 2026-05-06T00:40:06.360Z)
Latitude
0.00003°
Longitude
-81.72774°
Altitude
556.822 km
Speed
7.581 km/s
True Right ascension
10h 08m 46s
True Declination
0° 00' 00"
Sunlit
Object was in daylight at epoch
Visualization orbit readout
Latitude
Unknown
Longitude
Unknown
Altitude
Unknown
Speed
Unknown
Apparent Right ascension
Unknown
Apparent Declination
Unknown
Sunlit
N/A
Visualization observer readout
Local Sidereal Time
23:32:15
Azimuth
Unknown
Elevation
Unknown
Doppler factor
Unknown
Orbital elements
Apogee altitude
553.156 km
Perigee altitude
539.485 km
Semi-major axis
6,924.457 km
Eccentricity
0.00099
Inclination
98.006°
RAAN
152.193°
Arg. of periapsis
229.3847°
True anomaly
130.73785°
Mean anomaly
130.6521°
Eccentric anomaly
130.69498°
Mean motion
3.76673 °/min
Orbital period
95.57 mins
BSTAR
0.00018491
Loading maneuver chart data...
Computing Atmospheric mass density...
Loading historical data...
Loading historical data...
Loading historical data...
Loading historical data...
Loading historical data...
Loading historical data...
Loading historical data...

Documentation

Showing up to 5 results
|